Tracking 17147 objects as of 3-July-2015
HD Live streaming from Space Station

COSMOS 1018

Track COSMOS 1018 now!
10-day predictions
COSMOS 1018 is classified as:


NORAD ID: 10935
Int'l Code: 1978-056F
Perigee: 1,448.9 km
Apogee: 1,495.6 km
Inclination: 74.0 °
Period: 115.2 minutes
Semi major axis: 7843 km
RCS: 0.7262 m2 (medium)
Launch date: June 7, 1978
Source: Commonwealth of Independent States (former USSR) (CIS)
Your satellite tracking list
Your tracking list is empty





NASA's NSSDC Master Catalog

Two Line Element Set (TLE):
1 10935U 78056F   15183.14689775  .00000015  00000-0  20317-3 0  9991
2 10935 074.0265 248.6079 0029776 317.3722 069.1796 12.49854145691362

Source of the keplerian elements: AFSPC

N2YO: 305